Regional Weather Roundup
Issued by NWS

Current Version | Previous Version | Text Only | Print | Product List | Glossary On
Versions: 1 2 3 4 5 6 7 8 9 10 11 12 13 14 15 16 17 18 19 20 21 22 23 24 25 26 27 28 29 30 31 32 33 34 35 36 37 38 39 40 41 42 43 44 45 46 47 48 49 50
000
ASUS44 KFWD 231615
RWRTX
NORTH TEXAS HOURLY WEATHER ROUNDUP
NATIONAL WEATHER SERVICE FORT WORTH TX
1100 AM CDT SUN JUL 23 2017

NOTE: "FAIR" INDICATES FEW OR NO CLOUDS BELOW 12,000 FEET WITH NO
SIGNIFICANT WEATHER AND/OR OBSTRUCTIONS TO VISIBILITY.

TXZ118-119-231700-
DALLAS/FORT WORTH METROPLEX

CITY           SKY/WX    TMP DP  RH WIND       PRES   REMARKS
DFW AIRPORT    MOSUNNY   91  76  61 S12       29.89S HX 103
DALLAS LOVE    MOSUNNY   90  73  57 SW7       29.91R HX  98
FTW MEACHAM    SUNNY     91  76  61 SW9       29.90S HX 103
DAL-EXECUTIVE  MOSUNNY   90  76  63 S7        29.91S HX 101
FTW-ALLIANCE   MOSUNNY   91  74  57 VRB7      29.90S HX 100
FTW-NAS-JRB    MOSUNNY   92  73  53 S10       29.91S HX 100
FTW-SPINKS     PTSUNNY   91  73  55 S16       29.93S HX 100
ARLINGTON      SUNNY     90  75  61 SW12      29.91S HX 100
GRAND PRAIRIE  SUNNY     90  72  55 S8        29.92S HX  96
ADDISON        MOSUNNY   90  73  58 S10       29.92S HX  98
MESQUITE       MOSUNNY   88  75  66 S7        29.92S HX  97
LANCASTER      MOSUNNY   88  75  65 S6        29.92S HX  98
$$

TXZ091>094-102>105-117-120-121-131>134-231700-
NORTH CENTRAL TEXAS

CITY           SKY/WX    TMP DP  RH WIND       PRES   REMARKS
SHRMAN/DENISON SUNNY     88  73  61 S8        29.93R HX  96
GAINESVILLE    SUNNY     90  71  53 SE3       29.93R HX  95
BOWIE          MOSUNNY   90  70  52 CALM      29.92S HX  96
BRIDGEPORT     MOSUNNY   90  65  44 W5        29.93R HX  92
DECATUR        SUNNY     88  72  57 S6        29.92S HX  94
DENTON         SUNNY     91  74  57 S9        29.89F HX 100
MCKINNEY       MOSUNNY   89  77  67 S5        29.91S HX 101
BONHAM         PTSUNNY   86  75  70 S7        29.92S HX  95
GREENVILLE     MOSUNNY   91  75  59 S7        29.92S HX 102
ROCKWALL       MOSUNNY   85  75  72 SW16      29.93R HX  94
TERRELL        PTSUNNY   87  75  67 S9        29.92F HX  96
WAXAHACHIE     MOSUNNY   89  75  63 SW10      29.93S HX  99
CLEBURNE       CLOUDY    84  77  79 E8G15     29.96R THUNDER HX  94
GRANBURY       PTSUNNY   85  73  68 SE8       29.93S HX  91
$$

TXZ083>090-098>101-113>116-127>130-139>142-154-155-231700-
WESTERN NORTH TEXAS

CITY           SKY/WX    TMP DP  RH WIND       PRES   REMARKS
WICHITA FALLS  SUNNY     92  68  45 CALM      29.90R HX  96
WF-KICKAPOO    SUNNY     90  68  48 N7        29.93S HX  93
VERNON         SUNNY     93  57  30 N3        29.92S HX  91
ABILENE        SUNNY     91  63  39 W8        29.97F HX  92
ABILENE-DYESS  MOSUNNY   92  61  35 CALM      29.96S HX  92
GRAHAM         SUNNY     91  65  41 NW3       29.91S HX  92
BRECKENRIDGE   SUNNY     93  64  38 CALM      29.93S HX  94
CISCO          SUNNY     91  66  43 CALM      29.97S HX  94
EASTLAND       MOSUNNY   90  67  47 W5        29.95F HX  93
RANGER         MOSUNNY   87  67  52 SW6       29.96S
MINERAL WELLS  MOSUNNY   90  69  50 CALM      29.90F HX  94
STEPHENVILLE   MOSUNNY   88  72  58 SW6       29.98R HX  94
COMANCHE       SUNNY     91  72  53 SW7       29.97R HX  97
BROWNWOOD      LGT RAIN  90  68  48 SW6       29.96F HX  93
COLEMAN        SUNNY     92  63  38 SW6       29.98S HX  92
$$

TXZ143>147-156>162-174-175-231700-
CENTRAL TEXAS

CITY           SKY/WX    TMP DP  RH WIND       PRES   REMARKS
WACO           SUNNY     91  72  53 SW7       29.93S HX  98
WACO-TSTC      SUNNY     91  72  52 SW10      29.93F HX  98
WACO-MCGREGOR  SUNNY     94  71  47 SW9       29.94S HX 101
HILLSBORO      SUNNY     89  75  63 SW10      29.93S HX  99
CORSICANA      SUNNY     91  74  57 S12       29.94S HX 100
MEXIA          SUNNY     89  73  58 S13       29.94S HX  97
HEARNE         SUNNY     89  72  57 S10       29.96S HX  96
CAMERON        SUNNY     90  73  57 SW13      29.94S HX  97
TEMPLE         SUNNY     92  71  50 S12       29.94F HX  98
KILLEEN        MOSUNNY   91  67  46 S9        29.95S HX  94
KILLEEN-SKYLRK MOSUNNY   90  72  55 SW8       29.95S HX  97
FORT HOOD      MOSUNNY   89  69  53 SW9       29.92S HX  93
HAMILTON       MOSUNNY   83  68  59 SW10      29.97R
LAMPASAS       MOSUNNY   91  73  55 W5        29.96S HX  98
$$

TXZ095>097-106>112-122>126-135>138-148>153-164>167-231700-
EAST TEXAS

CITY           SKY/WX    TMP DP  RH WIND       PRES   REMARKS
PARIS            N/A     90  78  68 S6          N/A  HX 104
SULPHUR SPRNGS SUNNY     88  76  67 S7        29.95S HX  99
MOUNT PLEASANT MOSUNNY   89  73  59 SW3       29.94S HX  97
GILMER         MOSUNNY   87  76  69 S5        29.94F HX  97
MINEOLA        SUNNY     88  77  70 SW6       29.93S HX 100
TYLER          SUNNY     88  76  67 VRB7      29.94F HX  99
LONGVIEW       MOSUNNY   89  77  67 W6        29.93F HX 101
MARSHALL         N/A     85  75  70 SW5       29.96F HX  93
ATHENS         SUNNY     86  73  66 SW6       29.93F HX  93
PALESTINE      SUNNY     87  75  66 SW10      29.96S HX  96
JACKSONVILLE   SUNNY     86  74  65 W6        29.98S HX  94
HENDERSON      MOSUNNY   87  75  68 SW6       29.96S HX  97
CENTER           N/A     87  78  74 CALM      29.97S HAZE    HX 101
NACOGDOCHES    PTSUNNY   84  75  74 SW9       29.94S HX  92
LUFKIN         CLOUDY    86  76  71 SW7       29.96R HX  96
$$

SUPPLEMENTAL OBSERVATIONS (NWS FORT WORTH AREA)

CITY           SKY/WX    TMP DP  RH WIND       PRES   REMARKS
DENISON DAM      N/A     90  72  55 SW6         N/A  HX  96
CADDO GRASSLND   N/A     90  75  62 S7          N/A  HX 100
PAT MAYSE LAKE   N/A     88  81  79 SE6         N/A  HX 105
GREENVILLE       N/A     90  75  62 SW7         N/A  HX 100
CEDAR HILL       N/A     91  73  55 SW7         N/A  HX 100
LBJ GRASSLAND    N/A     91  72  52 S5          N/A  HX  98
COMANCHE         N/A     93  72  49 SW9G18      N/A  HX 100
MCGREGOR         N/A     93  70  46 SW7         N/A  HX  99
LAKE LIMESTONE   N/A     90  72  55 SW10        N/A  HX  96
ATHENS           N/A     90  75  62 SW6G14      N/A  HX 100
$$

SUPPLEMENTAL OBSERVATIONS (NWS NORMAN AREA)

CITY           SKY/WX    TMP DP  RH WIND       PRES   REMARKS
GOODLETT         N/A     93  58  31 NE6       29.95S HX  92
ODELL            N/A     93  63  36 N2        29.94R HX  94
CROWELL          N/A     94  63  35 SE1       29.94S HX  95
KNOX CITY        N/A     92  62  35 S3        29.95S HX  93
SEYMOUR          N/A     97  59  28 E3        29.93S HX  96
MILLERS CREEK    N/A     91  66  43 SE6         N/A  HX  94
$$

SUPPLEMENTAL OBSERVATIONS (NWS SAN ANGELO AREA)

CITY           SKY/WX    TMP DP  RH WIND       PRES   REMARKS
WEINERT          N/A     91  65  41 W2        29.95S HX  93
HASKELL          N/A     88  62  42 S5        29.96S
THROCKMORTON     N/A     91  69  48 S2        29.95S HX  95
STAMFORD         N/A     92  68  45 SW2       29.96F HX  95
CLYDE            N/A     92  63  38 W6        30.00R HX  93
HAMBY            N/A     93  64  38 SW5         N/A  HX  95
IVIE RESERVOIR   N/A     93  64  38 W12         N/A  HX  95
COLORADO BEND    N/A     91  66  43 SW9         N/A  HX  94
$$

SUPPLEMENTAL OBSERVATIONS (NWS SHREVEPORT AREA)

CITY           SKY/WX    TMP DP  RH WIND       PRES   REMARKS
CLARKSVILLE      N/A     93  75  55 W1          N/A  HX 104
TEXARKANA        N/A     90  79  70 SE1         N/A  HX 105
LINDEN           N/A     90  73  58 W3          N/A  HX  98
CADDO LAKE       N/A     90  75  62 S3          N/A  HX 100
GILMER           N/A     90  75  62 SW6         N/A  HX 100
HENDERSON        N/A     90  79  70 SW8         N/A  HX 105
LUFKIN           N/A     88  75  66 MISG        N/A  HX  97
N SABINE NF      N/A     88  77  70 MISG        N/A  HX 100
S SABINE NF      N/A     91  75  59 SW5         N/A  HX 102
$$

SUPPLEMENTAL OBSERVATIONS ARE A COLLECTION OF AUTOMATED INSTRUMENTS
THAT ARE MAINTAINED BY A VARIETY OF FEDERAL AND STATE AGENCIES.
CERTAIN ELEMENTS...SUCH AS HUMIDITY VALUES AND SUSTAINED WIND
SPEEDS...MAY BE APPROXIMATED.





USA.gov is the U.S. government's official web portal to all federal, state and local government web resources and services.